This is the latest recevied weather packets stored in our database for station/object W9WRP. If no packets are shown the sender has not sent any weather packets the latest 10 day(s).
| Time | Temp. | Humidity | Pressure | Rain* | Wind** | Luminosity | Snow |
|---|---|---|---|---|---|---|---|
| 1788057109 | 38.89° C | 21% | 1010.6 hPa | 0 mm | - | 0 W/m² | - |
| 1788056802 | 38.89° C | 21% | 1010.6 hPa | 0 mm | - | 0 W/m² | - |
| 1788056498 | 38.89° C | 21% | 1010.5 hPa | 0 mm | - | 0 W/m² | - |
| 1788056197 | 38.89° C | 21% | 1010.5 hPa | 0 mm | - | 0 W/m² | - |
| 1788055892 | 39.44° C | 21% | 1010.3 hPa | 0 mm | - | 0 W/m² | - |
| 1788055591 | 39.44° C | 21% | 1010.5 hPa | 0 mm | - | 1 W/m² | - |
| 1788055287 | 39.44° C | 21% | 1010.3 hPa | 0 mm | - | 2 W/m² | - |
| 1788054987 | 39.44° C | 21% | 1010.6 hPa | 0 mm | - | 4 W/m² | - |
| 1788054683 | 40° C | 20% | 1010.3 hPa | 0 mm | - | 6 W/m² | - |
| 1788054378 | 40° C | 20% | 1010.3 hPa | 0 mm | - | 9 W/m² | - |
| 1788054074 | 40° C | 20% | 1010.2 hPa | 0 mm | - | 11 W/m² | - |
| 1788053769 | 40° C | 20% | 1010.3 hPa | 0 mm | - | 15 W/m² | - |
| 1788053464 | 40° C | 20% | 1010.2 hPa | 0 mm | - | 18 W/m² | - |
| 1788053159 | 40.56° C | 20% | 1010.3 hPa | 0 mm | - | 22 W/m² | - |
| 1788052856 | 40.56° C | 20% | 1010.5 hPa | 0 mm | - | 26 W/m² | - |
| 1788052555 | 41.11° C | 20% | 1010.2 hPa | 0 mm | - | 30 W/m² | - |
| 1788052250 | 41.11° C | 19% | 1010.1 hPa | 0 mm | - | 41 W/m² | - |
| 1788051945 | 41.67° C | 19% | 1010.4 hPa | 0 mm | - | 45 W/m² | - |
| 1788051641 | 41.67° C | 19% | 1010.2 hPa | 0 mm | - | 48 W/m² | - |
| 1788051338 | 41.67° C | 20% | 1010.2 hPa | 0 mm | - | 59 W/m² | - |
| 1788051038 | 41.67° C | 19% | 1010.3 hPa | 0 mm | - | 55 W/m² | - |
| 1788050732 | 41.67° C | 19% | 1010.2 hPa | 0 mm | - | 58 W/m² | - |
| 1788050426 | 41.67° C | 19% | 1010.3 hPa | 0 mm | - | 91 W/m² | - |
| 1788050121 | 42.22° C | 19% | 1010.2 hPa | 0 mm | - | 90 W/m² | - |
| 1788049816 | 42.22° C | 19% | 1010.2 hPa | 0 mm | - | 71 W/m² | - |
* Rain latest hour (hover to see other rain measurements)
** Current wind speed in m/s (hover to see current wind gust speed)